User: anonymous   Login
Location: Delta State University
(33.7460°N, 90.7320°W)
Time: 04:22:29
(UTC-05:00)
Language:

Iridium 13 - Orbit

View from above orbital plane
View from above orbital plane
View from above satellite
View from above satellite

Ground track
Ground track

The orbit data is extracted from the following two-line orbital elements,

1 24840U 97030E   14295.44355516  .00001327  00000-0  46689-3 0  9822
2 24840 086.3998 035.1456 0002419 111.0054 296.1867 14.34216845908098
Epoch (UTC): 22 October 2014 10:38:43
Eccentricity: 0.0002419
inclination: 86.3998°
perigee height: 776 km
apogee height: 779 km
right ascension of ascending node: 35.1456°
argument of perigee: 111.0054°
revolutions per day: 14.34216845
mean anomaly at epoch: 296.1867°
orbit number at epoch: 90809

The dashed part of the orbit path shows where the satellite is in the earth's shadow,  

DLR